ISS DEB (ERA OUTFITTING)

基本信息
目录编号:
56434
目录名称:
ISS DEB (ERA OUTFITTING)
国际标识:
1998-067VJ
轨道中心:
EARTH
物体状态:
已陨落(2023-12-18)
发射日期:
1998-11-20 UTC
轨道信息
数据来源: 国际轨道数据
星历时间: 2023-12-18T05:53:44+0800
半长轴: 6558.374km
偏心率: 0.0007268
轨道倾角: 51.614°
近地点辐角: 312.498°
升交点赤经: 110.822°
平近点角: 47.543°
近地点: 175.472km
远地点: 185.006km
周期: 88.096分钟
每日圈数: 16.34589
详细信息
发射场:
TTMTR
轨道高度:
LEO
数据来源:
AOE Integration Group
参考系:
TEME
时间系统:
UTC
历元类型:
SGP4
2D轨道图
3D轨道图
轨道高度分析图
轨道倾角分析图
轨道综合分析图
查看轨道综合分析图